Regional Weather Roundup
Issued by NWS New Orleans/Baton Rouge, LA

Home | Current Version | Previous Version | Text Only | Print | Product List | Glossary On
Versions: 1 2 3 4 5 6 7 8 9 10 11 12 13 14 15 16 17 18 19 20 21 22 23 24 25 26 27 28 29 30 31 32 33 34 35 36 37 38 39 40 41 42 43 44 45 46 47 48 49 50
000
ASUS44 KLIX 010110
RWRLIX
NEW ORLEANS REGIONAL WEATHER ROUNDUP
NATIONAL WEATHER SERVICE NEW ORLEANS LA
700 PM CST SAT FEB 28 2015

NOTE: "FAIR" INDICATES FEW OR NO CLOUDS BELOW 12,000 FEET WITH NO
      SIGNIFICANT WEATHER AND/OR OBSTRUCTIONS TO VISIBILITY.
      SKY/WX - SKY CONDITION AND SIGNIFICANT WEATHER.
      TMP - AIR TEMPERATURE.     DP    - DEWPOINT TEMPERATURE.
      RH  - RELATIVE HUMIDITY.   PRES  - PRESSURE.
      HI  - HEAT INDEX.          WCI   - WIND CHILL INDEX.

*  THESE STATIONS ARE NOT NWS OR FAA STATIONS AND ARE NOT UNDER
   NWS QUALITY CONTROL.

LAZ038-040-048-061>063-065>067-069-010200-
SOUTHEAST LOUISIANA

CITY           SKY/WX    TMP DP  RH WIND       PRES   REMARKS
N.O. AUDUBON     N/A     58  52  81 MISG        N/A
N.O. INTL ARPT MOCLDY    57  49  74 E8        30.33R
N.O. LAKEFRONT CLOUDY    58  50  75 E9        30.34S
SLIDELL        CLOUDY    59  50  72 E5        30.34R
BATON ROUGE    MOCLDY    59  41  51 E13       30.30R
BOOTHVILLE     CLOUDY    56  53  90 NE13      30.33R
BELLE CHASSE   MOCLDY    57  49  74 E9        30.32S
BOGALUSA*        N/A     60  49  66 S6        30.35R
GALLIANO*      CLOUDY    58  53  83 NE5       30.32R
NEW ROADS*     CLOUDY    60  39  46 E3        30.30R
GONZALES*      CLOUDY    57  48  72 E5        30.31R
HAMMOND*       MOCLDY    57  46  67 S6        30.34S
HOUMA*         CLOUDY    56  51  83 E13       30.31S
PORT FOURCHON* CLOUDY    57  54  88 NE15      30.33R FOG

$$

MSZ070-080>082-010200-
SOUTHERN MISSISSIPPI

CITY           SKY/WX    TMP DP  RH WIND       PRES   REMARKS
MCCOMB         PTCLDY    57  36  45 CALM      30.31S
GULFPORT       CLOUDY    54  50  86 SE8       30.34S
BILOXI         MOCLDY    55  52  90 SE7       30.34S
PASCAGOULA     CLOUDY    55  50  83 SE5       30.36R
STENNIS ARPT*  CLEAR     55  46  71 SE8       30.34S

$$

COASTAL OBSERVATIONS
LAKE AND NEARSHORE STATIONS

STATION/POSITION TIME  TEMP    WIND        PRES    WAVE
                       AIR SEA DIR/SP/G            HT/PER
                 (UTC) (F)     (DEG/KT/KT) (MB)    (FT/S)
PASCAGOULA       0018   56     120/  3/  7 1026.8
WAVELAND YACHT   0018   54 52  110/ 12/ 13 1026.8
GRAND ISLE       0018   57 56   70/ 16/ 20 1026.5
SOUTHWEST PASS   0018   58 48   50/ 13/ 14 1025.8
NEW CANAL        0018   56     130/  1/  4 1027.2
SHELL BEACH      0018   56 53   90/ 10/ 13 1026.8

OFFSHORE STATIONS

STATION/POSITION TIME  TEMP    WIND        PRES    WAVE
                       AIR SEA DIR/SP/G            HT/PER
                 (UTC) (F)     (DEG/KT/KT) (MB)    (FT/S)
64 S DAUPHIN ISL 0038   63 70  100/ 16/ 21 1026.6    5/ 7

$$



USA.gov is the U.S. government's official web portal to all federal, state and local government web resources and services.